Simultaneous Nadir Overpasses (SNOs) Predictions

Prediction of SNOs between GOES-16 and NOAA-19 Satellite Orbit:

Table of predicted SNOs for the next 14.0 days since TLE Epoch: 12/5/2020
Index Date Time (GOES-16) GOES-16 Lat,Lon NOAA-19 Lat,Lon Distance(km) Time Diff (sec)
1 12/06/2020 11:36:19 -0.02, -75.24 0.62, -78.07 322.43 80
2 12/07/2020 11:24:37 -0.01, -75.24 -0.04, -75.20 4.88 80
3 12/08/2020 11:10:14 -0.01, -75.25 -0.70, -72.34 331.68 80
4 12/10/2020 23:31:10 0.01, -75.23 -0.44, -77.29 234.74 80
5 12/11/2020 23:22:07 0.01, -75.24 0.18, -74.42 92.94 80
6 12/12/2020 23:10:24 0.01, -75.25 0.85, -71.56 420.61 80
7 12/14/2020 11:43:04 -0.01, -75.30 0.94, -79.38 465.53 80
8 12/15/2020 11:31:21 -0.00, -75.31 0.27, -76.52 137.71 80
9 12/16/2020 11:16:59 -0.00, -75.33 -0.40, -73.66 190.26 80
10 12/18/2020 23:37:53 0.00, -75.33 -0.73, -78.61 373.61 80
